Weather Roundup
Issued by NWS Springfield, MO

Home | Current Version | Previous Version | Text Only | Print | Product List | Glossary On
Versions: 1 2 3 4 5 6 7 8 9 10 11 12 13 14 15 16 17 18 19 20 21 22 23 24 25 26 27 28 29 30 31 32 33 34 35 36 37 38 39 40 41 42 43 44 45 46 47 48 49 50
000
NZUS99 KSGF 132207
HRRSGF

HOURLY WEATHER
NATIONAL WEATHER SERVICE SPRINGFIELD MO
500 PM CDT SUN JUL 13 2014

......SGF CWA......

CITY           SKY/WX    TMP DP  RH WIND       PRES   REMARKS
SPRINGFIELD    PTSUNNY   90  69  50 SW6       29.97S HX  94
JOPLIN         MOSUNNY   92  69  47 SW12      29.96S HX  97
WEST PLAINS    SUNNY     88  72  58 S10       30.01F HX  94
ROLLA          CLOUDY    84  67  56 N7        29.97S
OSAGE BEACH    MOSUNNY   86  72  62 N3        29.96F HX  92
BRANSON        MOSUNNY   95  66  38 S8        30.00F HX  98

......SURROUNDING SGF CWA......

CITY           SKY/WX    TMP DP  RH WIND       PRES   REMARKS
CHANUTE        SUNNY     90  68  48 N7        29.97F HX  94
PARSONS        MOSUNNY   92  70  48 W6        29.97F HX  97
COFFEYVILLE    SUNNY     93  70  46 SW9       29.94F HX  99
EMPORIA        PTSUNNY   84  68  58 N7        30.01F
GROVE OK       MOSUNNY   97  70  41 SW10G18   29.96F HX 103
ROGERS AR      MOSUNNY   92  67  43 SW16G25   29.99F HX  95
SILOAM SPRINGS SUNNY     93  68  43 SW14G20   29.99F HX  97
HARRISON AR    SUNNY     91  69  48 S8        30.01F HX  96
NEAR YELLVILLE   N/A     93  68  43 S6        29.98F HX  97

......KANSAS AND MISSOURI......

CITY           SKY/WX    TMP DP  RH WIND       PRES   REMARKS
KANSAS CTY INT PTSUNNY   85  69  58 N7        30.00F
DOWNTOWN KC    MOSUNNY   87  71  58 N8        29.97F HX  93
COLUMBIA       CLOUDY    80  75  84 N7        29.98S
SEDALIA        PTSUNNY   82  74  76 SW5       29.98F
ST JOSEPH      MOSUNNY   86  71  60 NW6       29.99F HX  91
ST LOUIS       PTSUNNY   89  69  51 SW9       29.95S HX  93
SPIRIT OF STL  PTSUNNY   86  72  62 SW5       29.93F HX  92
KIRKSVILLE     MOSUNNY   86  66  51 NW6       29.98F
WICHITA        PTSUNNY   85  68  56 N13       30.01F
TOPEKA         MOSUNNY   89  68  49 N8        30.00F HX  93
OLATHE         MOSUNNY   84  71  65 N10       29.98F

......TENNESSEE......

CITY           SKY/WX    TMP DP  RH WIND       PRES   REMARKS
MEMPHIS        MOSUNNY   92  73  53 CALM      30.00F HX 100
NASHVILLE      PTSUNNY   94  70  45 SW7       29.99F HX 100

......ARKANSAS.......

CITY           SKY/WX    TMP DP  RH WIND       PRES   REMARKS
FAYETTEVILLE   SUNNY     91  72  53 S13       30.00F HX  98
FT SMITH       SUNNY     95  70  44 S10       29.96F HX 101
LITTLE ROCK    MOSUNNY   94  70  45 SW9       29.99F HX 100

......OKLAHOMA.......

CITY           SKY/WX    TMP DP  RH WIND       PRES   REMARKS
TULSA          MOSUNNY  100  64  30 S15       29.90F HX 102
PONCA CITY     SUNNY     93  73  52 N12       29.96F HX 102
MCALESTER      SUNNY     96  67  38 SW8       29.99F HX 100
OKLAHOMA CITY  MOSUNNY   99  57  24 SW10      29.96F HX  98

......IOWA............

CITY           SKY/WX    TMP DP  RH WIND       PRES   REMARKS
DES MOINES     PTSUNNY   83  66  56 N10       29.96F
QUAD CITIES    MOSUNNY   83  66  56 SW13      29.91F

......ILLINOIS........

CITY           SKY/WX    TMP DP  RH WIND       PRES   REMARKS
QUINCY         SUNNY     84  67  56 CALM      29.96S
CHICAGO        MOSUNNY   84  60  44 W12       29.88F



USA.gov is the U.S. government's official web portal to all federal, state and local government web resources and services.